This is the latest recevied weather packets stored in our database for station/object N0ZRD-10. If no packets are shown the sender has not sent any weather packets the latest 10 day(s).
| Time | Temp. | Humidity | Pressure | Rain* | Wind** | Luminosity | Snow |
|---|---|---|---|---|---|---|---|
| 1777679288 | 11.67° C | 19% | - | 0 mm | - | - | - |
| 1777678687 | 11.11° C | 20% | - | 0 mm | - | - | - |
| 1777678087 | 11.11° C | 23% | - | 0 mm | - | - | - |
| 1777677485 | 10.56° C | 20% | - | 0 mm | - | - | - |
| 1777676284 | 11.67° C | 22% | - | 0 mm | - | - | - |
| 1777675682 | 11.11° C | 18% | - | 0 mm | - | - | - |
| 1777674478 | 11.11° C | 18% | - | 0 mm | - | - | - |
| 1777673276 | 11.67° C | 21% | - | 0 mm | - | - | - |
| 1777672674 | 11.67° C | 18% | - | 0 mm | - | - | - |
| 1777672074 | 11.67° C | 19% | - | 0 mm | - | - | - |
| 1777671473 | 11.67° C | 19% | - | 0 mm | - | - | - |
| 1777670271 | 11.11° C | 18% | - | 0 mm | - | - | - |
| 1777669670 | 11.11° C | 21% | - | 0 mm | - | - | - |
| 1777669069 | 11.11° C | 19% | - | 0 mm | - | - | - |
| 1777668468 | 11.11° C | 20% | - | 0 mm | - | - | - |
| 1777667867 | 11.11° C | 21% | - | 0 mm | - | - | - |
| 1777666663 | 10.56° C | 24% | - | 0 mm | - | - | - |
| 1777666063 | 9.44° C | 25% | - | 0 mm | - | - | - |
| 1777665462 | 11.11° C | 21% | - | 0 mm | - | - | - |
| 1777664861 | 10° C | 22% | - | 0 mm | - | - | - |
| 1777664260 | 9.44° C | 25% | - | 0 mm | - | - | - |
| 1777663658 | 9.44° C | 23% | - | 0 mm | - | - | - |
| 1777663057 | 10.56° C | 22% | - | 0 mm | - | - | - |
| 1777662456 | 10° C | 27% | - | 0 mm | - | - | - |
| 1777661856 | 9.44° C | 29% | - | 0 mm | - | - | - |
* Rain latest hour (hover to see other rain measurements)
** Current wind speed in m/s (hover to see current wind gust speed)